Regional Weather Roundup
Issued by NWS

Home | Current Version | Previous Version | Graphics & Text | Print | Product List | Glossary On
Versions: 1 2 3 4 5 6 7 8 9 10 11 12 13 14 15 16 17 18 19 20 21 22 23 24 25 26 27
000
ASUS45 KBOU 221107
RWRCO

WEATHER ROUNDUP FOR COLORADO
NATIONAL WEATHER SERVICE DENVER/BOULDER CO
500 AM MDT MON MAY 22 2017

NOTE: "FAIR" INDICATES FEW OR NO CLOUDS BELOW 12000 FEET WITH NO
SIGNIFICANT WEATHER AND/OR OBSTRUCTIONS TO VISIBILITY.

COZ001>005-013-030-031-221200-
...NORTHWEST COLORADO...

CITY           SKY/WX    TMP DP  RH WIND       PRES   REMARKS
CRAIG          FOG       32  29  88 CALM      30.29S VSB 1
HAYDEN         FAIR      34  28  80 SE5       30.28S WCI  30
MEEKER         MOCLDY    35  33  92 NE3       30.28S
RABBIT EARS PA FAIR      28  28 100 NW6       30.35S WCI  22
STEAMBOAT SPGS FAIR      32  32 100 CALM      30.29S
WALDEN           N/A     34  32  93 S3        30.31F
$$

COZ006>008-011-221200-
...WEST CENTRAL VALLEYS...

CITY           SKY/WX    TMP DP  RH WIND       PRES   REMARKS
GRAND JUNCTION MOCLDY    47  41  80 CALM      30.21S
MONTROSE       FAIR      44  41  89 SE6       30.25S
EAGLE          CLOUDY    42  40  92 E3        30.29S
RIFLE          MOCLDY    43  40  89 SE3       30.24S
DELTA          FAIR      47  40  75 N3        30.23S
NUCLA          FAIR      41  36  81 E6        30.26F
$$

COZ017>023-064>068-221200-
...SOUTHWEST COLORADO...

CITY           SKY/WX    TMP DP  RH WIND       PRES   REMARKS
DURANGO        FAIR      36  29  75 NE3       30.17F
CORTEZ         FAIR      36  34  92 E5        30.20S
PAGOSA SPRINGS FAIR      34  27  77 CALM      30.21F
TELLURIDE      FAIR      35  35 100 CALM      30.31F FOG
WOLF CREEK PAS FAIR      28  23  80 SW7       30.40S WCI  21
$$

COZ009-010-012-014-032>034-037-058>063-221200-
...CENTRAL COLORADO...

CITY           SKY/WX    TMP DP  RH WIND       PRES   REMARKS
ASPEN          CLOUDY    39  37  92 SE3       30.27S
BUENA VISTA    RAIN      39  36  89 E6        30.26R
COPPER MTN     HVY SNOW  32  28  86 CALM      30.36S VSB<1/4
BERTHOUD PASS  HAZE      21  12  68 NW10G26   30.35F THUNDER VSB<1/4
COTTONWOOD PAS LGT SNOW  36  34  93 CALM      30.29S
GUNNISON       FAIR      40  36  86 N3        30.26F
KREMMLING      MOCLDY    41  36  81 CALM      30.31S
LEADVILLE      MOCLDY    33  29  85 NW8       30.28S WCI  26
MONARCH PASS   CLOUDY    28  27  93 W22       30.43R WCI  15
SALIDA         CLOUDY    43  39  85 N5        30.32R
SUNLIGHT       FOG       30  30 100 CALM      30.39S VSB 3/4
WILKERSON PASS HVY SNOW  28  28 100 NE13G18   30.34F VSB 1/4 WCI  18
$$

COZ069>075-221200-
...SAN LUIS VALLEY/SANGRE DE CRISTO MOUNTAINS...

CITY           SKY/WX    TMP DP  RH WIND       PRES   REMARKS
ALAMOSA        FAIR      40  32  73 N5        30.21S
DEL NORTE      MOCLDY    35  29  78 W6        30.24R WCI  30
LA VETA PASS   SNOW      34  34 100 NE5       30.40S VSB<1/4 WCI  30
SAGUACHE       MOCLDY    41  32  70 N3        30.24S
$$

COZ035-036-038>040-221200-
...NORTHERN COLORADO FRONT RANGE...

CITY           SKY/WX    TMP DP  RH WIND       PRES   REMARKS
DENVER INTL AP MOCLDY    44  41  89 W7        30.20F
DMNS CITY PARK   N/A     46  44  92 E7        30.20S
AURORA         MOCLDY    43  43  99 S6        30.21F
FRONT RANGE AP FAIR      43  43 100 SW5       30.20F
ERIE MUNI ARPT FAIR      42  41  95 CALM      30.20F
BOULDER MUN AP FAIR      45  41  87 SW5       30.20S
CENTENNIAL     CLOUDY    43  41  93 CALM      30.21F
BROOMFIELD     MOCLDY    46  41  81 CALM      30.21F
FORT COLLINS   FAIR      41  40  96 S5        30.20F
LONGMONT       FAIR      43  41  91 SW3       30.21F FOG
$$

COZ041-046-047-076>085-087-088-221200-
...PIKES PEAK/PALMER DIVIDE AND SOUTHERN FOOTHILLS...

CITY           SKY/WX    TMP DP  RH WIND       PRES   REMARKS
COLO. SPRINGS  LGT RAIN  45  39  79 NW12      30.23R
A. F. ACADEMY  LGT RAIN  42  39  92 NW3       30.23S
SCHRIEVER AFB  LGT RAIN  43  39  87 N9        30.21
CHEYENNE MTN   RAIN      41  37  84 N13G21    30.18R
ELLICOTT       CLOUDY   N/A N/A N/A NE6       30.19S
FALCON         DRIZZLE   41  38  89 N8        30.22F
FORT CARSON    HVY RAIN  44  40  86 NW13      30.22R
LIMON          CLOUDY    45  44  97 NE3       30.19F
MONUMENT HILL  CLOUDY    37  37 100 W5        30.24F
CANON CITY     NOT AVBL
WALSENBURG     NOT AVBL
TRINIDAD       LGT RAIN  47  44  90 N10       30.19S
$$

COZ042>045-048>051-090-091-221200-
...NORTHEAST COLORADO...

CITY           SKY/WX    TMP DP  RH WIND       PRES   REMARKS
GREELEY ARPT   FAIR      42  41  96 CALM      30.20S
AKRON          FAIR      45  43  93 W9        30.16F
BURLINGTON     CLOUDY    50  49  96 W9        30.16R
WRAY           FAIR     N/A N/A N/A W12       30.13F
YUMA           FAIR      45  34  65 W8        30.15S
STERLING       FAIR      39  37  93 S3        30.13F
HOLYOKE        NOT AVBL
FORT MORGAN    FAIR      41  39  95 W8        30.17F
$$

COZ086-089-092>099-221200-
...SOUTHEAST COLORADO...

CITY           SKY/WX    TMP DP  RH WIND       PRES   REMARKS
PUEBLO         CLOUDY    51  42  71 N9        30.18S
LA JUNTA       CLOUDY    52  47  83 NE7       30.16R
LAMAR          CLOUDY    53  49  86 CALM      30.12R
SPRINGFIELD      N/A     49  45  86 NW9       30.15R
$$




USA.gov is the U.S. government's official web portal to all federal, state and local government web resources and services.